| time (UTC) | temp F | wind direction | speed knots | gust knots | rain 1hr in | rain 24hr in | rain mn in | humidity % | barometer mb |
| 20260504014357 | 51 | 248 | 10.4 | 13.9 | 0.00 | 0.00 | 0.13 | 66 | 1032.0 |
| 20260504013857 | 51 | 225 | 5.2 | 13.0 | 0.00 | 0.00 | 0.13 | 66 | 1032.0 |
| 20260504013357 | 51 | 248 | 7.8 | 10.4 | 0.00 | 0.00 | 0.13 | 66 | 1032.0 |
| 20260504012857 | 51 | 225 | 14.8 | 14.8 | 0.00 | 0.00 | 0.13 | 66 | 1032.0 |
| 20260504012356 | 51 | 203 | 13.0 | 13.0 | 0.00 | 0.00 | 0.13 | 65 | 1032.0 |
| 20260504011856 | 51 | 248 | 13.9 | 16.5 | 0.00 | 0.00 | 0.13 | 65 | 1032.0 |
| 20260504011356 | 51 | 225 | 10.4 | 15.6 | 0.00 | 0.00 | 0.13 | 64 | 1032.0 |
| 20260504010856 | 51 | 248 | 8.7 | 13.0 | 0.00 | 0.00 | 0.13 | 64 | 1032.0 |
| 20260504010356 | 51 | 248 | 13.0 | 13.0 | 0.00 | 0.00 | 0.13 | 63 | 1032.0 |
| 20260504005856 | 51 | 225 | 13.9 | 16.5 | 0.00 | 0.00 | 0.13 | 63 | 1032.0 |
| 20260504005356 | 52 | 225 | 13.0 | 14.8 | 0.00 | 0.00 | 0.13 | 62 | 1032.0 |
| 20260504004856 | 52 | 248 | 10.4 | 14.8 | 0.00 | 0.00 | 0.13 | 62 | 1032.0 |
| 20260504004356 | 52 | 225 | 10.4 | 13.0 | 0.00 | 0.00 | 0.13 | 62 | 1032.0 |
| 20260504003856 | 52 | 270 | 7.0 | 13.0 | 0.00 | 0.00 | 0.13 | 62 | 1032.0 |
| 20260504003356 | 52 | 248 | 15.6 | 15.6 | 0.00 | 0.00 | 0.13 | 62 | 1032.0 |
| 20260504002857 | 52 | 225 | 7.8 | 15.6 | 0.00 | 0.00 | 0.13 | 62 | 1032.0 |
| 20260504002356 | 52 | 248 | 6.1 | 14.8 | 0.00 | 0.00 | 0.13 | 63 | 1032.0 |
| 20260504001857 | 52 | 225 | 9.6 | 14.8 | 0.00 | 0.00 | 0.13 | 64 | 1032.0 |
| 20260504001356 | 51 | 270 | 8.7 | 13.9 | 0.00 | 0.00 | 0.13 | 64 | 1032.0 |
| 20260504000856 | 51 | 225 | 10.4 | 10.4 | 0.00 | 0.00 | 0.13 | 65 | 1032.0 |
| 20260504000356 | 51 | 270 | 8.7 | 9.6 | 0.00 | 0.00 | 0.13 | 65 | 1032.0 |
| 20260503235857 | 51 | 225 | 4.3 | 13.0 | 0.00 | 0.00 | 0.13 | 65 | 1032.0 |
| 20260503235356 | 51 | 248 | 10.4 | 13.0 | 0.00 | 0.00 | 0.13 | 66 | 1032.0 |
| 20260503234857 | 51 | 203 | 7.0 | 9.6 | 0.00 | 0.00 | 0.13 | 66 | 1032.0 |
| 20260503234356 | 51 | 248 | 7.8 | 13.0 | 0.00 | 0.00 | 0.13 | 66 | 1032.0 |
| 20260503233856 | 51 | 248 | 13.0 | 13.0 | 0.00 | 0.00 | 0.13 | 66 | 1032.0 |
| 20260503233356 | 51 | 270 | 7.8 | 8.7 | 0.00 | 0.00 | 0.13 | 66 | 1032.0 |
| 20260503232856 | 51 | 248 | 9.6 | 11.3 | 0.00 | 0.00 | 0.13 | 66 | 1032.0 |
| 20260503232356 | 51 | 270 | 11.3 | 13.0 | 0.00 | 0.00 | 0.13 | 66 | 1032.0 |
| 20260503231856 | 51 | 270 | 9.6 | 12.2 | 0.00 | 0.00 | 0.13 | 66 | 1032.0 |
| 20260503231356 | 51 | 270 | 6.1 | 8.7 | 0.00 | 0.00 | 0.13 | 66 | 1032.0 |
| 20260503230856 | 52 | 270 | 6.1 | 9.6 | 0.00 | 0.00 | 0.13 | 66 | 1032.0 |
| 20260503230356 | 52 | 225 | 10.4 | 12.2 | 0.00 | 0.00 | 0.13 | 65 | 1032.0 |
| 20260503225856 | 52 | 270 | 12.2 | 17.4 | 0.00 | 0.00 | 0.13 | 65 | 1032.0 |
| 20260503225356 | 52 | 225 | 10.4 | 10.4 | 0.00 | 0.00 | 0.13 | 65 | 1032.0 |
| 20260503224856 | 52 | 270 | 16.5 | 16.5 | 0.00 | 0.00 | 0.13 | 65 | 1032.0 |
| 20260503224357 | 52 | 225 | 5.2 | 13.0 | 0.00 | 0.00 | 0.13 | 65 | 1032.0 |
| 20260503223856 | 52 | 248 | 11.3 | 15.6 | 0.00 | 0.00 | 0.13 | 65 | 1032.0 |
| 20260503223356 | 52 | 225 | 8.7 | 19.1 | 0.00 | 0.00 | 0.13 | 66 | 1032.0 |
| 20260503222856 | 52 | 225 | 7.0 | 13.9 | 0.00 | 0.00 | 0.13 | 66 | 1032.0 |
| 20260503222356 | 51 | 270 | 10.4 | 16.5 | 0.02 | 0.00 | 0.13 | 67 | 1033.0 |
| 20260503221856 | 51 | 248 | 13.0 | 16.5 | 0.02 | 0.00 | 0.13 | 67 | 1033.0 |
| 20260503221356 | 51 | 225 | 20.0 | 20.0 | 0.02 | 0.00 | 0.13 | 67 | 1033.0 |
| 20260503220856 | 51 | 203 | 14.8 | 19.1 | 0.02 | 0.00 | 0.13 | 67 | 1033.0 |
| 20260503220356 | 51 | 248 | 14.8 | 17.4 | 0.02 | 0.00 | 0.13 | 66 | 1032.0 |
| 20260503215856 | 51 | 248 | 19.1 | 19.1 | 0.02 | 0.00 | 0.13 | 66 | 1033.0 |
| 20260503215358 | 51 | 248 | 12.2 | 17.4 | 0.02 | 0.00 | 0.13 | 66 | 1032.0 |
| 20260503214856 | 51 | 248 | 13.0 | 13.0 | 0.02 | 0.00 | 0.13 | 66 | 1032.0 |
| 20260503214356 | 51 | 248 | 10.4 | 13.9 | 0.03 | 0.00 | 0.13 | 66 | 1032.0 |
| 20260503213856 | 51 | 248 | 14.8 | 18.2 | 0.03 | 0.00 | 0.13 | 66 | 1032.0 |
| 20260503213356 | 51 | 225 | 13.0 | 16.5 | 0.03 | 0.00 | 0.13 | 66 | 1032.0 |
| 20260503212856 | 51 | 225 | 9.6 | 22.6 | 0.03 | 0.00 | 0.13 | 66 | 1032.0 |
| 20260503212356 | 51 | 248 | 14.8 | 17.4 | 0.01 | 0.00 | 0.11 | 66 | 1032.0 |
| 20260503211856 | 51 | 248 | 12.2 | 16.5 | 0.01 | 0.00 | 0.11 | 66 | 1032.0 |
| 20260503211356 | 51 | 225 | 8.7 | 15.6 | 0.01 | 0.00 | 0.11 | 66 | 1032.0 |
| 20260503210856 | 51 | 225 | 12.2 | 20.9 | 0.01 | 0.00 | 0.11 | 66 | 1032.0 |
| 20260503210356 | 50 | 248 | 13.9 | 16.5 | 0.01 | 0.00 | 0.11 | 66 | 1032.0 |
| 20260503205856 | 50 | 225 | 13.0 | 15.6 | 0.01 | 0.00 | 0.11 | 65 | 1032.0 |
| 20260503205356 | 50 | 225 | 8.7 | 17.4 | 0.01 | 0.00 | 0.11 | 65 | 1032.0 |
| 20260503204856 | 50 | 270 | 18.2 | 20.0 | 0.01 | 0.00 | 0.11 | 64 | 1032.0 |
| 20260503204357 | 51 | 248 | 16.5 | 18.2 | 0.00 | 0.00 | 0.10 | 63 | 1033.0 |
| 20260503203856 | 51 | 225 | 13.9 | 15.6 | 0.00 | 0.00 | 0.10 | 63 | 1032.0 |
| 20260503203356 | 51 | 203 | 11.3 | 20.9 | 0.01 | 0.00 | 0.10 | 62 | 1033.0 |
| 20260503202856 | 51 | 225 | 13.9 | 15.6 | 0.01 | 0.00 | 0.10 | 62 | 1033.0 |
| 20260503202356 | 52 | 203 | 18.2 | 18.2 | 0.01 | 0.00 | 0.10 | 61 | 1033.0 |
| 20260503201856 | 52 | 180 | 13.0 | 17.4 | 0.01 | 0.00 | 0.10 | 60 | 1033.0 |
| 20260503201357 | 52 | 248 | 15.6 | 19.1 | 0.01 | 0.00 | 0.10 | 59 | 1033.0 |
| 20260503200856 | 52 | 248 | 14.8 | 18.2 | 0.01 | 0.00 | 0.10 | 59 | 1033.0 |
| 20260503200356 | 53 | 225 | 15.6 | 18.2 | 0.01 | 0.00 | 0.10 | 57 | 1033.0 |
| 20260503195856 | 53 | 270 | 12.2 | 23.5 | 0.01 | 0.00 | 0.10 | 57 | 1033.0 |
| 20260503195356 | 53 | 225 | 15.6 | 16.5 | 0.02 | 0.00 | 0.10 | 57 | 1033.0 |
| 20260503194856 | 53 | 225 | 16.5 | 19.1 | 0.02 | 0.00 | 0.10 | 56 | 1033.0 |
| 20260503194356 | 53 | 248 | 16.5 | 19.1 | 0.02 | 0.00 | 0.10 | 56 | 1033.0 |
| 20260503193856 | 53 | 225 | 10.4 | 21.7 | 0.01 | 0.00 | 0.09 | 55 | 1033.0 |
| 20260503193356 | 54 | 248 | 21.7 | 21.7 | 0.02 | 0.00 | 0.09 | 55 | 1033.0 |
| 20260503192856 | 53 | 270 | 16.5 | 23.5 | 0.02 | 0.00 | 0.09 | 53 | 1033.0 |
| 20260503191858 | 53 | 270 | 20.0 | 23.5 | 0.02 | 0.00 | 0.09 | 53 | 1033.0 |
| 20260503190908 | 53 | 248 | 17.4 | 23.5 | 0.02 | 0.00 | 0.09 | 52 | 1033.0 |
| 20260503190356 | 53 | 270 | 16.5 | 20.0 | 0.02 | 0.00 | 0.09 | 52 | 1034.0 |
| 20260503185856 | 53 | 225 | 16.5 | 20.0 | 0.01 | 0.00 | 0.08 | 51 | 1034.0 |
| 20260503185357 | 53 | 225 | 20.0 | 21.7 | 0.08 | 0.00 | 0.08 | 50 | 1034.0 |
| 20260503184856 | 54 | 248 | 9.6 | 21.7 | 0.08 | 0.00 | 0.08 | 49 | 1034.0 |
| 20260503184356 | 53 | 203 | 20.0 | 24.3 | 0.08 | 0.00 | 0.08 | 49 | 1034.0 |
| 20260503183856 | 53 | 225 | 11.3 | 22.6 | 0.07 | 0.00 | 0.07 | 47 | 1034.0 |
| 20260503183356 | 55 | 248 | 13.9 | 19.1 | 0.07 | 0.00 | 0.07 | 46 | 1034.0 |
| 20260503182856 | 54 | 203 | 8.7 | 16.5 | 0.07 | 0.00 | 0.07 | 46 | 1034.0 |
| 20260503182356 | 53 | 225 | 18.2 | 25.2 | 0.07 | 0.00 | 0.07 | 45 | 1034.0 |
| 20260503181856 | 53 | 248 | 17.4 | 20.0 | 0.07 | 0.00 | 0.07 | 44 | 1035.0 |
| 20260503181356 | 53 | 248 | 12.2 | 21.7 | 0.07 | 0.00 | 0.07 | 44 | 1035.0 |
| 20260503180857 | 54 | 225 | 13.9 | 23.5 | 0.07 | 0.00 | 0.07 | 44 | 1035.0 |
| 20260503180356 | 55 | 225 | 22.6 | 22.6 | 0.07 | 0.00 | 0.07 | 45 | 1035.0 |
| 20260503175856 | 55 | 203 | 13.9 | 15.6 | 0.00 | 0.00 | 0.00 | 46 | 1035.0 |
| 20260503175356 | 53 | 180 | 10.4 | 17.4 | 0.00 | 0.00 | 0.00 | 46 | 1035.0 |
| 20260503174856 | 53 | 225 | 16.5 | 19.1 | 0.00 | 0.00 | 0.00 | 47 | 1035.0 |
| 20260503174356 | 54 | 225 | 10.4 | 19.1 | 0.00 | 0.00 | 0.00 | 50 | 1035.0 |
| 20260503173856 | 53 | 225 | 16.5 | 16.5 | 0.00 | 0.00 | 0.00 | 53 | 1035.0 |
| 20260503173356 | 51 | 270 | 7.8 | 16.5 | 0.00 | 0.00 | 0.00 | 57 | 1035.0 |
| 20260503172857 | 51 | 248 | 7.8 | 17.4 | 0.00 | 0.00 | 0.00 | 59 | 1035.0 |
| 20260503172356 | 50 | 270 | 13.0 | 17.4 | 0.00 | 0.00 | 0.00 | 61 | 1035.0 |
| 20260503171856 | 50 | 248 | 9.6 | 18.2 | 0.00 | 0.00 | 0.00 | 64 | 1036.0 |
| 20260503171357 | 50 | 270 | 12.2 | 16.5 | 0.00 | 0.00 | 0.00 | 65 | 1036.0 |
| 20260503170857 | 51 | 225 | 12.2 | 19.1 | 0.00 | 0.00 | 0.00 | 66 | 1036.0 |
| 20260503170356 | 50 | 248 | 14.8 | 17.4 | 0.00 | 0.00 | 0.00 | 67 | 1036.0 |
| 20260503150857 | 48 | 248 | 13.9 | 13.9 | 0.00 | 0.00 | 0.00 | 67 | 1037.0 |
| 20260503131356 | 47 | 203 | 11.3 | 11.3 | 0.00 | 0.00 | 0.00 | 78 | 1037.0 |
| 20260503130857 | 48 | 203 | 4.3 | 11.3 | 0.00 | 0.00 | 0.00 | 78 | 1037.0 |
| 20260503130357 | 47 | 248 | 4.3 | 9.6 | 0.00 | 0.00 | 0.00 | 79 | 1037.0 |
| 20260503110357 | 34 | 158 | 1.7 | 2.6 | 0.00 | 0.00 | 0.00 | 99 | 1037.0 |
| 20260503090357 | 28 | 90 | 0.0 | 0.0 | 0.00 | 0.00 | 0.00 | 99 | 1037.0 |
| 20260503081356 | 29 | 113 | 0.0 | 0.0 | 0.00 | 0.00 | 0.00 | 99 | 1037.0 |
| 20260503080857 | 29 | 113 | 0.0 | 0.0 | 0.00 | 0.00 | 0.00 | 99 | 1037.0 |
| 20260503080356 | 29 | 158 | 0.0 | 0.0 | 0.00 | 0.00 | 0.00 | 99 | 1037.0 |
| 20260503072856 | 30 | 270 | 0.0 | 0.0 | 0.00 | 0.00 | 0.00 | 99 | 1037.0 |
| 20260503072356 | 32 | 203 | 0.0 | 0.9 | 0.00 | 0.00 | 0.00 | 99 | 1037.0 |
| 20260503071856 | 31 | 113 | 0.0 | 0.0 | 0.00 | 0.00 | 0.00 | 99 | 1037.0 |
| 20260503071356 | 32 | 158 | 0.0 | 0.0 | 0.00 | 0.00 | 0.00 | 99 | 1037.0 |
| 20260503070856 | 32 | 158 | 0.0 | 0.0 | 0.00 | 0.00 | 0.00 | 98 | 1037.0 |
| 20260503070356 | 32 | 180 | 0.0 | 0.0 | 0.00 | 0.00 | 0.00 | 98 | 1037.0 |
| 20260503054856 | 34 | 180 | 0.0 | 0.0 | 0.00 | 0.00 | 0.00 | 94 | 1037.0 |
| 20260503054357 | 34 | 180 | 0.0 | 0.0 | 0.00 | 0.00 | 0.00 | 93 | 1037.0 |
| 20260503053856 | 34 | 180 | 0.0 | 0.0 | 0.00 | 0.00 | 0.00 | 93 | 1037.0 |
| 20260503053356 | 34 | 180 | 0.0 | 0.9 | 0.00 | 0.00 | 0.00 | 92 | 1037.0 |
| 20260503052856 | 34 | 158 | 0.0 | 0.9 | 0.00 | 0.00 | 0.00 | 91 | 1037.0 |
| 20260503052356 | 34 | 135 | 0.0 | 0.9 | 0.00 | 0.00 | 0.00 | 90 | 1037.0 |
| 20260503051856 | 34 | 158 | 0.0 | 0.0 | 0.00 | 0.00 | 0.00 | 90 | 1037.0 |
| 20260503051356 | 35 | 158 | 0.0 | 0.0 | 0.00 | 0.00 | 0.00 | 90 | 1038.0 |
| 20260503050856 | 35 | 180 | 0.0 | 0.0 | 0.00 | 0.00 | 0.00 | 89 | 1037.0 |
| 20260503050357 | 35 | 158 | 0.0 | 0.9 | 0.00 | 0.00 | 0.00 | 89 | 1037.0 |
| 20260503045856 | 36 | 180 | 0.9 | 0.9 | 0.00 | 0.00 | 0.00 | 88 | 1038.0 |
| 20260503045356 | 36 | 180 | 0.0 | 0.0 | 0.00 | 0.00 | 0.00 | 88 | 1038.0 |
| 20260503044856 | 36 | 203 | 0.0 | 0.0 | 0.00 | 0.00 | 0.00 | 87 | 1038.0 |
| 20260503044356 | 37 | 180 | 0.9 | 1.7 | 0.00 | 0.00 | 0.00 | 86 | 1038.0 |
| 20260503043857 | 37 | 158 | 0.0 | 0.0 | 0.00 | 0.00 | 0.00 | 85 | 1038.0 |
| 20260503043356 | 37 | 180 | 0.0 | 0.9 | 0.00 | 0.00 | 0.00 | 85 | 1038.0 |
| 20260503042857 | 37 | 203 | 0.9 | 1.7 | 0.00 | 0.00 | 0.00 | 84 | 1038.0 |
| 20260503042356 | 38 | 203 | 0.0 | 2.6 | 0.00 | 0.00 | 0.00 | 83 | 1038.0 |
| 20260503041856 | 38 | 180 | 0.9 | 0.9 | 0.00 | 0.00 | 0.00 | 83 | 1038.0 |
| 20260503041356 | 38 | 225 | 0.9 | 0.9 | 0.00 | 0.00 | 0.00 | 82 | 1038.0 |
| 20260503040856 | 39 | 180 | 0.9 | 1.7 | 0.00 | 0.00 | 0.00 | 81 | 1038.0 |
| 20260503040356 | 39 | 180 | 1.7 | 2.6 | 0.00 | 0.00 | 0.00 | 80 | 1038.0 |
| 20260503035856 | 39 | 180 | 1.7 | 2.6 | 0.00 | 0.00 | 0.00 | 79 | 1038.0 |
| 20260503035356 | 39 | 158 | 1.7 | 2.6 | 0.00 | 0.00 | 0.00 | 78 | 1038.0 |
| 20260503034856 | 40 | 180 | 1.7 | 3.5 | 0.00 | 0.00 | 0.00 | 78 | 1038.0 |
| 20260503034356 | 40 | 180 | 3.5 | 3.5 | 0.00 | 0.00 | 0.00 | 77 | 1038.0 |
| 20260503033856 | 40 | 203 | 4.3 | 4.3 | 0.00 | 0.00 | 0.00 | 76 | 1038.0 |
| 20260503033357 | 41 | 180 | 2.6 | 3.5 | 0.00 | 0.00 | 0.00 | 75 | 1038.0 |
| 20260503032856 | 41 | 203 | 2.6 | 3.5 | 0.00 | 0.00 | 0.00 | 74 | 1038.0 |
| 20260503032358 | 41 | 203 | 2.6 | 2.6 | 0.00 | 0.00 | 0.00 | 74 | 1038.0 |
| 20260503031856 | 41 | 180 | 1.7 | 1.7 | 0.00 | 0.00 | 0.00 | 74 | 1038.0 |
| 20260503031356 | 41 | 248 | 0.9 | 2.6 | 0.00 | 0.00 | 0.00 | 74 | 1038.0 |
| 20260503030856 | 41 | 225 | 2.6 | 2.6 | 0.00 | 0.00 | 0.00 | 74 | 1038.0 |
| 20260503030356 | 41 | 225 | 0.9 | 4.3 | 0.00 | 0.00 | 0.00 | 74 | 1038.0 |
| 20260503025856 | 41 | 203 | 1.7 | 2.6 | 0.00 | 0.00 | 0.00 | 74 | 1038.0 |
| 20260503025356 | 41 | 225 | 1.7 | 3.5 | 0.00 | 0.00 | 0.00 | 74 | 1038.0 |
| 20260503024856 | 41 | 270 | 1.7 | 1.7 | 0.00 | 0.00 | 0.00 | 74 | 1038.0 |
| 20260503024356 | 41 | 248 | 1.7 | 2.6 | 0.00 | 0.00 | 0.00 | 74 | 1038.0 |
| 20260503023856 | 41 | 248 | 0.9 | 0.9 | 0.00 | 0.00 | 0.00 | 74 | 1038.0 |
| 20260503023356 | 41 | 203 | 1.7 | 2.6 | 0.00 | 0.00 | 0.00 | 74 | 1038.0 |
| 20260503022856 | 41 | 203 | 1.7 | 1.7 | 0.00 | 0.00 | 0.00 | 74 | 1038.0 |
| 20260503022356 | 41 | 270 | 1.7 | 2.6 | 0.00 | 0.00 | 0.00 | 74 | 1038.0 |
| 20260503021856 | 41 | 248 | 1.7 | 2.6 | 0.00 | 0.00 | 0.00 | 74 | 1038.0 |
| 20260503021356 | 41 | 225 | 1.7 | 2.6 | 0.00 | 0.00 | 0.00 | 74 | 1038.0 |
| 20260503020856 | 41 | 225 | 1.7 | 2.6 | 0.00 | 0.00 | 0.00 | 74 | 1038.0 |
| 20260503020357 | 41 | 248 | 2.6 | 2.6 | 0.00 | 0.00 | 0.00 | 74 | 1038.0 |
| 20260503015856 | 42 | 225 | 2.6 | 3.5 | 0.00 | 0.00 | 0.00 | 74 | 1038.0 |
| 20260503015356 | 42 | 225 | 2.6 | 4.3 | 0.00 | 0.00 | 0.00 | 74 | 1038.0 |
| 20260503014856 | 42 | 270 | 1.7 | 3.5 | 0.00 | 0.00 | 0.00 | 74 | 1038.0 |